TimeCST,TemperatureF,Dew PointF,Humidity,Sea Level PressureIn,VisibilityMPH,Wind Direction,Wind SpeedMPH,Gust SpeedMPH,PrecipitationIn,Events,Conditions,WindDirDegrees,DateUTC
12:24 AM,28.4,24.8,86,30.07,10.0,North,16.1,23.0,N/A,,Overcast,10,2012-12-26 06:24:00
12:52 AM,28.0,24.1,85,30.07,10.0,North,16.1,-,N/A,,Overcast,10,2012-12-26 06:52:00
1:11 AM,28.4,24.8,86,30.04,10.0,North,18.4,-,N/A,,Overcast,10,2012-12-26 07:11:00
1:40 AM,28.4,24.8,86,30.04,10.0,North,15.0,26.5,N/A,,Overcast,10,2012-12-26 07:40:00
1:52 AM,28.0,24.1,85,30.06,10.0,North,17.3,26.5,N/A,,Overcast,10,2012-12-26 07:52:00
2:23 AM,28.4,24.8,86,30.03,10.0,North,18.4,25.3,N/A,,Overcast,10,2012-12-26 08:23:00
2:52 AM,28.0,24.1,85,30.04,10.0,North,17.3,29.9,N/A,,Overcast,10,2012-12-26 08:52:00
3:52 AM,28.0,24.1,85,30.00,10.0,NNE,19.6,-,N/A,,Overcast,20,2012-12-26 09:52:00
4:52 AM,28.9,24.1,82,29.98,10.0,North,18.4,27.6,N/A,,Overcast,10,2012-12-26 10:52:00
5:52 AM,28.9,24.1,82,29.99,10.0,North,18.4,25.3,N/A,,Overcast,10,2012-12-26 11:52:00
6:30 AM,28.4,24.8,86,29.97,10.0,North,18.4,29.9,N/A,,Overcast,10,2012-12-26 12:30:00
6:52 AM,30.0,24.1,79,30.00,10.0,North,17.3,26.5,N/A,,Overcast,10,2012-12-26 12:52:00
7:52 AM,28.9,24.1,82,29.99,10.0,North,17.3,26.5,N/A,,Overcast,350,2012-12-26 13:52:00
8:30 AM,28.4,24.8,86,29.97,10.0,North,17.3,25.3,N/A,,Overcast,350,2012-12-26 14:30:00
8:52 AM,28.0,24.1,85,30.00,10.0,North,17.3,-,N/A,,Overcast,350,2012-12-26 14:52:00
9:52 AM,28.9,24.1,82,30.03,10.0,North,19.6,27.6,N/A,,Overcast,350,2012-12-26 15:52:00
10:52 AM,30.0,24.1,79,30.03,10.0,North,20.7,27.6,N/A,,Overcast,350,2012-12-26 16:52:00
11:52 AM,32.0,25.0,75,30.01,10.0,North,17.3,29.9,N/A,,Overcast,350,2012-12-26 17:52:00
12:26 PM,32.0,24.8,75,29.98,10.0,North,18.4,27.6,N/A,,Overcast,350,2012-12-26 18:26:00
12:52 PM,32.0,25.0,75,30.01,10.0,North,17.3,26.5,N/A,,Overcast,350,2012-12-26 18:52:00
1:52 PM,30.9,25.0,79,30.03,10.0,NNW,18.4,25.3,N/A,,Overcast,330,2012-12-26 19:52:00
2:52 PM,30.2,24.8,80,30.04,10.0,NNW,13.8,21.9,N/A,,Overcast,330,2012-12-26 20:52:00
3:52 PM,30.0,24.1,79,30.08,10.0,NNW,13.8,-,N/A,,Overcast,340,2012-12-26 21:52:00
5:52 PM,28.9,23.0,78,30.12,10.0,NNW,12.7,-,N/A,,Overcast,330,2012-12-26 23:52:00
6:52 PM,28.0,21.9,78,30.13,10.0,NNW,9.2,-,N/A,,Overcast,330,2012-12-27 00:52:00
7:52 PM,28.0,21.9,78,30.14,10.0,NW,11.5,-,N/A,,Overcast,320,2012-12-27 01:52:00
8:52 PM,27.0,21.9,81,30.15,10.0,NW,6.9,-,N/A,,Overcast,320,2012-12-27 02:52:00
9:52 PM,27.0,21.9,81,30.16,10.0,NNW,9.2,-,N/A,,Overcast,340,2012-12-27 03:52:00
10:52 PM,27.0,21.9,81,30.17,10.0,NW,5.8,-,N/A,,Overcast,320,2012-12-27 04:52:00
11:52 PM,27.0,21.9,81,30.17,10.0,NW,6.9,-,N/A,,Overcast,310,2012-12-27 05:52:00